This is the latest recevied weather packets stored in our database for station/object KX4O-13. If no packets are shown the sender has not sent any weather packets the latest 10 day(s).
| Time | Temp. | Humidity | Pressure | Rain* | Wind** | Luminosity | Snow |
|---|---|---|---|---|---|---|---|
| 1777746058 | 14.44° C | 43% | 1013.2 hPa | 0 mm | - | 877 W/m² | - |
| 1777745758 | 14.44° C | 43% | 1013.3 hPa | 0 mm | - | 1078 W/m² | - |
| 1777745458 | 13.89° C | 43% | 1013.4 hPa | 0 mm | - | 455 W/m² | - |
| 1777745158 | 13.33° C | 45% | 1013.5 hPa | 0 mm | - | 339 W/m² | - |
| 1777744858 | 14.44° C | 49% | 1013.4 hPa | 0 mm | - | 410 W/m² | - |
| 1777744558 | 13.33° C | 48% | 1013.5 hPa | 0 mm | - | 745 W/m² | - |
| 1777744258 | 13.89° C | 46% | 1013.4 hPa | 0 mm | - | 406 W/m² | - |
| 1777743958 | 13.89° C | 45% | 1013.5 hPa | 0 mm | - | 803 W/m² | - |
| 1777743658 | 13.89° C | 45% | 1013.6 hPa | 0 mm | - | 645 W/m² | - |
| 1777743358 | 13.89° C | 46% | 1013.7 hPa | 0 mm | - | 717 W/m² | - |
| 1777743058 | 13.89° C | 48% | 1013.8 hPa | 0 mm | - | 888 W/m² | - |
| 1777742758 | 13.33° C | 48% | 1013.9 hPa | 0 mm | - | 1005 W/m² | - |
| 1777742458 | 12.22° C | 48% | 1013.9 hPa | 0 mm | - | 510 W/m² | - |
| 1777742158 | 12.22° C | 51% | 1014 hPa | 0 mm | - | 339 W/m² | - |
| 1777741858 | 12.22° C | 49% | 1013.9 hPa | 0 mm | - | 276 W/m² | - |
| 1777741558 | 12.78° C | 49% | 1013.9 hPa | 0 mm | - | 283 W/m² | - |
| 1777741258 | 12.78° C | 46% | 1014 hPa | 0 mm | - | 350 W/m² | - |
| 1777740958 | 13.33° C | 48% | 1014 hPa | 0 mm | - | 429 W/m² | - |
| 1777740658 | 13.33° C | 51% | 1014.1 hPa | 0 mm | - | 638 W/m² | - |
| 1777740358 | 12.78° C | 51% | 1014.1 hPa | 0 mm | - | 580 W/m² | - |
| 1777740058 | 12.22° C | 49% | 1014.1 hPa | 0 mm | - | 476 W/m² | - |
| 1777739758 | 12.22° C | 52% | 1014.2 hPa | 0 mm | - | 763 W/m² | - |
| 1777739458 | 12.78° C | 52% | 1014.1 hPa | 0 mm | - | 763 W/m² | - |
| 1777739158 | 12.78° C | 50% | 1014.4 hPa | 0 mm | - | 763 W/m² | - |
| 1777738858 | 12.22° C | 51% | 1014.5 hPa | 0 mm | - | 737 W/m² | - |
* Rain latest hour (hover to see other rain measurements)
** Current wind speed in m/s (hover to see current wind gust speed)